Traverse City, MI

1:41 AM EDT on May 23, 2018 (GMT -0400)
Cherry Capital

Weather History for KTVC - September, 2012

Change the Weather History Date:

Sunday, September 16, 2012

  Actual Average Record
Temperature  
Mean Temperature 66 °F 60 °F  
Max Temperature 79 °F 70 °F 90 °F (1955)
Min Temperature 52 °F 50 °F 32 °F (1964)
Degree Days  
Heating Degree Days 0 6  
Month to date heating degree days 34 69  
Since 1 July heating degree days 49 138  
Cooling Degree Days 1 1  
Month to date cooling degree days 56 28  
Year to date cooling degree days 808 397  
Growing Degree Days 16 (Base 50)    
Moisture  
Dew Point 48 °F    
Average Humidity 59    
Maximum Humidity 86    
Minimum Humidity 31    
Precipitation  
Precipitation 0.00 in 0.11 in 1.45 in (1942)
Month to date precipitation 1.41 1.89  
Year to date precipitation 19.63 23.00  
Sea Level Pressure  
Sea Level Pressure 30.00 in    
Wind  
Wind Speed 6 mph (SW)    
Max Wind Speed 21 mph    
Max Gust Speed 28 mph    
Visibility 10 miles    
Events      
T = Trace of Precipitation, MM = Missing Value Source: NWS Daily Summary

Daily Weather History Graph

Daily Weather History Graph

Search for Another Location

Airport or City:

Astronomy

Sep. 16, 2012 Rise Set
Actual Time 7:22 AM EDT 7:50 PM EDT
Civil Twilight 6:53 AM EDT 8:19 PM EDT
Nautical Twilight 6:18 AM EDT 8:54 PM EDT
Astronomical Twilight 5:43 AM EDT 9:29 PM EDT
Moon 8:05 AM EDT (9/16) 7:49 PM EDT (9/16)
Length of Visible Light 13h 25m
Length of Day
12h 27m
New Moon, 0% of the Moon is Illuminated
Sep 16
New Moon
Sep 22
First Quarter
Sep 29
Full
Oct 8
Last Quarter
Oct 15
New

Hourly Weather History & Observations

Time (EDT) Temp. Dew Point Humidity Pressure Visibility Wind Dir Wind Speed Gust Speed Precip Events Conditions
12:53 AM 54.0 °F 48.0 °F 80% 30.09 in 10.0 mi Calm Calm - N/A   Clear
1:53 AM 53.1 °F 46.9 °F 80% 30.07 in 10.0 mi Calm Calm - N/A   Clear
2:53 AM 55.9 °F 46.0 °F 69% 30.05 in 10.0 mi Variable 4.6 mph - N/A   Clear
3:53 AM 57.0 °F 50.0 °F 77% 30.04 in 10.0 mi SSW 3.5 mph - N/A   Clear
4:53 AM 57.9 °F 54.0 °F 87% 30.03 in 10.0 mi Calm Calm - N/A   Clear
5:53 AM 59.0 °F 54.0 °F 83% 30.02 in 10.0 mi Variable 3.5 mph - N/A   Clear
6:53 AM 57.9 °F 54.0 °F 87% 30.03 in 10.0 mi SSW 3.5 mph - N/A   Partly Cloudy
7:53 AM 57.2 °F 53.6 °F 88% 30.03 in 10.0 mi SSW 3.5 mph - N/A   Partly Cloudy
8:53 AM 63.0 °F 54.0 °F 72% 30.03 in 10.0 mi South 5.8 mph - N/A   Partly Cloudy
9:53 AM 68.0 °F 54.0 °F 61% 30.02 in 10.0 mi SW 4.6 mph - N/A   Scattered Clouds
10:53 AM 72.0 °F 52.0 °F 49% 30.02 in 10.0 mi WSW 10.4 mph 18.4 mph N/A   Scattered Clouds
11:53 AM 73.0 °F 53.1 °F 49% 30.02 in 10.0 mi WSW 10.4 mph 21.9 mph N/A   Scattered Clouds
12:53 PM 75.9 °F 50.0 °F 40% 30.00 in 10.0 mi WSW 10.4 mph 19.6 mph N/A   Mostly Cloudy
1:53 PM 78.1 °F 46.0 °F 32% 29.99 in 10.0 mi West 15.0 mph 23.0 mph N/A   Mostly Cloudy
2:53 PM 78.1 °F 46.0 °F 32% 29.98 in 10.0 mi WSW 15.0 mph 23.0 mph N/A   Mostly Cloudy
3:53 PM 75.2 °F 42.8 °F 31% 29.97 in 10.0 mi WSW 12.7 mph 23.0 mph N/A   Mostly Cloudy
4:53 PM 75.9 °F 44.1 °F 32% 29.95 in 10.0 mi WSW 12.7 mph 20.7 mph N/A   Scattered Clouds
5:53 PM 73.9 °F 43.0 °F 33% 29.94 in 10.0 mi SW 10.4 mph 21.9 mph N/A   Mostly Cloudy
6:53 PM 73.9 °F 43.0 °F 33% 29.94 in 10.0 mi SW 8.1 mph 17.3 mph N/A   Scattered Clouds
7:53 PM 70.0 °F 42.1 °F 36% 29.94 in 10.0 mi Variable 4.6 mph - N/A   Scattered Clouds
8:53 PM 66.9 °F 42.1 °F 40% 29.94 in 10.0 mi SSW 3.5 mph - N/A   Partly Cloudy
9:53 PM 62.1 °F 43.0 °F 50% 29.94 in 10.0 mi Calm Calm - N/A   Clear
10:53 PM 63.0 °F 45.0 °F 52% 29.93 in 10.0 mi South 4.6 mph - N/A   Clear
11:53 PM 62.1 °F 46.9 °F 58% 29.92 in 10.0 mi SSE 4.6 mph - N/A   Clear